Starlink 3758

operational
NORAD ID: 52297 Int'l Des: 2022-041 Owner: SPXS Country: US Constellation: starlink
LEOCIRCULAR

关于 Starlink 3758

正在加载描述...

实时位置

正在加载3D地球...

即将过境

高度历史

Altitude vs Time

uPlot chart will show altitude changes over time

两行轨道根数

1 52297U 22041AN 26062.19555993 -.00000207 00000-0 50776-5 0 9996
2 52297 53.2173 128.2733 0001525 116.3472 243.7677 15.08837966213523
Epoch: Mar 3, 2026 • Age: 18 hours

当前状态

高度 539.5 km
速度 7.60 km/s
星下点 21.30°N, 143.92°W
发射日期 Apr 21, 2022
运行时间 3.8 years
类型 internet

技术详情

分类 Payload
质量 297.00 kg
干质量 275.00 kg
总质量 297.00 kg
长度 0.20 m
直径 2.80 m
跨度 9.00 m
形状 Box + pan
制造商 SPXS
平台类型 Starlink
阶段状态 In Orbit
所有者/国家 SPXS/US

大型星座

Loading constellations...